This is the latest recevied weather packets stored in our database for station/object PU5FJO-13. If no packets are shown the sender has not sent any weather packets the latest 10 day(s).
| Time | Temp. | Humidity | Pressure | Rain* | Wind** | Luminosity | Snow |
|---|---|---|---|---|---|---|---|
| 1777923973 | 21.67° C | 71% | 1017.2 hPa | - | - | - | - |
| 1777923373 | 21.67° C | 70% | 1017.2 hPa | - | - | - | - |
| 1777922773 | 21.67° C | 70% | 1017 hPa | - | - | - | - |
| 1777922173 | 21.67° C | 69% | 1016.8 hPa | - | - | - | - |
| 1777921573 | 21.67° C | 69% | 1016.8 hPa | - | - | - | - |
| 1777920972 | 22.22° C | 68% | 1016.7 hPa | - | - | - | - |
| 1777920372 | 22.22° C | 68% | 1016.8 hPa | - | - | - | - |
| 1777919773 | 22.78° C | 66% | 1016.9 hPa | - | - | - | - |
| 1777919172 | 22.78° C | 65% | 1016.9 hPa | - | - | - | - |
| 1777918572 | 23.33° C | 63% | 1017.3 hPa | - | - | - | - |
| 1777917972 | 23.33° C | 63% | 1017.5 hPa | - | - | - | - |
| 1777917373 | 23.33° C | 63% | 1017.5 hPa | - | - | - | - |
| 1777916772 | 22.78° C | 65% | 1017.4 hPa | - | - | - | - |
| 1777916173 | 22.22° C | 66% | 1017.6 hPa | - | - | - | - |
| 1777915572 | 22.22° C | 68% | 1017.6 hPa | - | - | - | - |
| 1777914972 | 22.22° C | 63% | 1017.7 hPa | - | - | - | - |
| 1777914373 | 22.22° C | 63% | 1017.9 hPa | - | - | - | - |
| 1777913772 | 22.22° C | 63% | 1018.4 hPa | - | - | - | - |
| 1777913172 | 22.22° C | 62% | 1018.4 hPa | - | - | - | - |
| 1777912572 | 22.22° C | 63% | 1018.7 hPa | - | - | - | - |
| 1777911972 | 22.22° C | 62% | 1018.8 hPa | - | - | - | - |
| 1777911372 | 22.78° C | 62% | 1018.9 hPa | - | - | - | - |
| 1777910772 | 22.78° C | 62% | 1018.8 hPa | - | - | - | - |
| 1777910172 | 23.33° C | 61% | 1018.9 hPa | - | - | - | - |
| 1777909572 | 22.78° C | 63% | 1019.3 hPa | - | - | - | - |
* Rain since midnight (hover to see other rain measurements)
** Current wind speed in m/s (hover to see current wind gust speed)